Regional Weather Roundup
Issued by NWS

Home | Current Version | Previous Version | Graphics & Text | Print | Product List | Glossary On
Versions: 1 2 3 4 5 6 7 8 9 10 11 12 13 14 15 16 17 18 19 20 21 22 23 24 25 26 27 28 29 30 31 32 33 34 35 36 37 38 39 40 41 42 43 44 45 46 47 48 49 50
000
ASUS43 KIND 040759
RWRIN

WEATHER ROUNDUP FOR INDIANA
NATIONAL WEATHER SERVICE INDIANAPOLIS IN
400 AM EDT TUE AUG 04 2015

NOTE: "FAIR" INDICATES FEW OR NO CLOUDS BELOW 12,000 FEET WITH NO
SIGNIFICANT WEATHER AND/OR OBSTRUCTIONS TO VISIBILITY.

* - STATION DOES NOT REPORT WEATHER SUCH AS PRECIPITATION OR FOG.

+ - STATION NOT QUALITY CONTROLLED BY THE NATIONAL WEATHER SERVICE.
    USE DATA WITH CAUTION...ESPECIALLY DEWPOINT AND RELATIVE
    HUMIDITY OBSERVATIONS.

INZ001>003-010>013-019-020-040900-
NORTHWEST INDIANA

CITY           SKY/WX    TMP DP  RH WIND       PRES   REMARKS
KNOX *+        CLEAR     57  57 100 SW3       29.91S
MONTICELLO +   CLEAR     60  57  92 CALM      29.93S

$$

LMZ046-743>745-040900-
SOUTHERN LAKE MICHIGAN

STATION/POSITION TIME  TEMP    WIND        PRES    WAVE
                       AIR SEA DIR/SP/G            HT
                 (UTC) (F)     (DEG/KT/KT) (MB)    (FT)
BURNS HARBOR     0700   69     200/  7/  7 1013.2S
MICHIGAN CITY    0700   67     180/  7/  8   N/A
5NW MICH CITY    0700   73 74  280/ 10/ 12   N/A     2

$$

INZ004-005-014>016-021>024-040900-
NORTH CENTRAL INDIANA

CITY           SKY/WX    TMP DP  RH WIND       PRES   REMARKS
GOSHEN         CLEAR     59  54  83 CALM      29.91S
SOUTH BEND     CLEAR     61  56  83 SW5       29.92S
WARSAW +       CLEAR     57  55  94 CALM      29.92S

$$

INZ006>009-017-018-025>027-040900-
NORTHEAST INDIANA

CITY           SKY/WX    TMP DP  RH WIND       PRES   REMARKS
ANGOLA *+      CLEAR     55  54  94 CALM      29.92R
FORT WAYNE     CLEAR     59  56  89 SW6       29.93S

$$

INZ028-029-035-036-043>045-051>053-040900-
WEST CENTRAL INDIANA

CITY           SKY/WX    TMP DP  RH WIND       PRES   REMARKS
CRAWFORDSVL +  CLEAR     56  56 100 CALM        N/A
GREENCASTLE +  CLEAR     61  57  88 CALM      29.95F
LAFAYETTE      CLEAR     58  56  93 CALM      29.94R
TERRE HAUTE    CLEAR     63  59  87 CALM      29.94S

$$

INZ030>032-037>040-046>048-054>057-064-065-040900-
CENTRAL INDIANA

CITY           SKY/WX    TMP DP  RH WIND       PRES   REMARKS
FRANKFORT +    CLEAR    N/A N/A N/A CALM      29.96S
GREENWOOD *+   CLEAR     61  57  88 CALM      29.95F
INDIANAPOLIS   CLEAR     65  58  78 W5        29.93S
-EAGLE CREEK   CLEAR     64  60  87 CALM      29.94S
KOKOMO *+      CLEAR     59  55  88 SW3       29.95R
MT COMFORT *+  CLEAR     59 N/A N/A CALM      29.95S
SHELBYVILLE    CLEAR     64  59  83 CALM      29.93F

$$

INZ033-034-041-042-049-050-058-059-040900-
EAST CENTRAL INDIANA

CITY           SKY/WX    TMP DP  RH WIND       PRES   REMARKS
MUNCIE         CLEAR     58  57  97 CALM      29.95R

$$

INZ060-061-067>069-081>083-085>088-040900-
SOUTHWEST INDIANA

CITY           SKY/WX    TMP DP  RH WIND       PRES   REMARKS
EVANSVILLE     PTCLDY    74  68  81 CALM      29.94R
HUNTINGBURG *+ CLOUDY    72  66  83 CALM      29.93F

$$

INZ062-063-066-070>080-084-089>092-040900-
SOUTH CENTRAL AND SOUTHEAST INDIANA

CITY           SKY/WX    TMP DP  RH WIND       PRES   REMARKS
BLOOMINGTON    CLEAR     64  61  90 CALM      29.95S
MADISON *+     CLEAR     68  64  88 CALM      29.96S
SEYMOUR +      CLEAR     68  66  94 CALM      29.94S

$$



USA.gov is the U.S. government's official web portal to all federal, state and local government web resources and services.